Total_Precipitation_Accumulation
2.20 2.09 3.04 4.53 4.82 4.03 3.39 2.85 2.15 1.72 1.17 0.97 0.89 1.04 1.40 1.90 2.32 2.82 3.18 3.01 1.99 1.63 1.80 2.58 3.53 3.47 3.18 3.22 3.15 3.06 3.03 2.96 2.85 2.75 2.55 2.52 2.40 2.45 2.74 2.62 2.61 2.50 2.39 2.46 2.68 2.91 3.12 3.15 3.19
1.81 2.49 3.67 5.09 4.57 3.59 3.21 2.72 2.04 1.40 0.89 0.71 0.63 0.73 0.87 0.90 1.00 1.77 3.02 3.00 1.69 1.36 1.57 2.16 3.06 2.97 2.87 2.91 2.72 2.63 2.60 2.52 2.56 2.57 2.38 2.38 2.40 2.52 2.83 2.75 2.57 2.43 2.34 2.41 2.67 2.96 3.07 3.13 3.22
2.03 3.23 4.32 4.54 3.60 3.27 3.16 2.45 1.64 0.95 0.61 0.55 0.55 0.57 0.71 1.06 1.23 1.91 2.65 2.15 1.35 1.17 1.50 2.25 2.91 2.73 2.72 2.69 2.45 2.46 2.34 2.27 2.34 2.44 2.36 2.44 2.42 2.50 2.71 2.77 2.73 2.66 2.67 2.67 2.84 2.93 2.98 3.16 3.21
2.32 3.55 3.86 3.53 3.05 2.53 2.14 1.75 1.27 1.06 0.68 0.42 0.40 0.55 0.67 1.12 1.49 1.77 1.81 1.48 1.21 1.23 1.38 1.93 2.56 2.49 2.42 2.39 2.45 2.42 2.26 2.22 2.21 2.26 2.32 2.37 2.40 2.42 2.56 2.70 2.63 2.57 2.81 3.07 3.21 3.16 3.15 3.24 3.29
2.90 3.70 3.46 2.91 2.52 2.04 1.51 1.18 1.00 1.02 0.82 0.48 0.37 0.61 0.96 1.41 1.60 1.43 1.30 1.08 1.04 1.12 1.15 1.53 2.25 2.27 2.21 2.25 2.33 2.39 2.29 2.29 2.19 2.19 2.36 2.39 2.36 2.38 2.52 2.71 2.66 2.56 2.69 3.12 3.34 3.39 3.32 3.18 3.20
3.17 3.27 3.19 2.72 2.44 1.96 1.51 1.08 0.85 0.81 0.66 0.47 0.39 0.63 1.12 1.47 1.67 1.46 1.25 1.25 1.21 1.22 1.14 1.32 2.01 2.18 2.09 2.19 2.22 2.27 2.36 2.33 2.20 2.19 2.24 2.33 2.45 2.42 2.51 2.56 2.61 2.53 2.58 2.81 2.95 2.96 3.13 3.01 3.03
3.01 2.93 2.68 2.21 2.27 2.40 1.74 1.07 0.91 0.90 0.75 0.52 0.38 0.68 1.13 1.44 1.39 1.29 1.35 1.43 1.43 1.48 1.42 1.48 1.71 1.89 2.04 2.15 2.18 2.30 2.41 2.35 2.19 2.08 2.07 2.12 2.24 2.22 2.18 2.18 2.36 2.43 2.55 2.63 2.68 2.84 3.01 3.02 3.05
2.36 2.42 2.17 2.10 2.31 2.51 1.63 1.06 0.87 0.82 0.73 0.38 0.33 0.65 1.05 1.07 1.04 1.17 1.32 1.34 1.34 1.41 1.40 1.44 1.59 1.66 1.70 1.86 2.21 2.49 2.83 2.69 2.24 1.93 1.78 1.92 1.94 1.89 1.97 1.92 2.15 2.42 2.61 2.86 2.96 3.10 2.95 2.96 2.87
2.12 2.50 2.59 2.60 2.55 2.20 1.45 1.24 0.96 0.65 0.58 0.43 0.39 0.52 0.65 0.65 0.81 0.94 1.12 1.14 1.14 1.10 1.15 1.26 1.36 1.41 1.48 1.49 1.76 2.29 2.75 2.74 2.27 1.87 1.78 1.71 1.45 1.42 1.61 1.80 2.16 2.47 2.67 3.01 3.13 3.07 2.84 2.65 2.53
2.07 2.44 2.35 1.99 1.65 1.37 1.19 1.09 0.92 0.80 0.82 0.65 0.56 0.55 0.57 0.61 0.82 0.92 0.96 1.06 1.02 0.95 0.92 0.92 0.93 1.04 1.12 1.13 1.46 1.78 1.84 2.04 1.78 1.70 1.62 1.57 1.56 1.56 1.34 1.50 1.98 2.29 2.43 2.66 2.86 2.80 2.45 1.99 1.81
1.74 1.86 1.63 1.43 1.09 0.89 0.88 0.79 0.69 0.73 0.84 0.72 0.69 0.58 0.62 0.66 0.77 0.81 0.78 0.78 0.83 0.84 0.83 0.75 0.74 0.82 0.97 1.11 1.28 1.49 1.64 1.80 1.75 1.69 1.71 1.80 1.77 1.47 1.31 1.40 1.54 1.74 1.88 1.89 2.06 2.12 1.84 1.56 1.50
1.66 1.38 1.22 1.15 0.80 0.79 0.81 0.68 0.60 0.60 0.57 0.44 0.53 0.49 0.54 0.61 0.64 0.64 0.64 0.66 0.65 0.67 0.77 0.73 0.60 0.63 0.72 0.80 0.98 1.14 1.35 1.55 1.60 1.43 1.42 1.58 1.66 1.49 1.36 1.53 1.58 1.67 1.80 1.86 1.87 1.84 1.66 1.36 1.30
1.59 1.47 1.19 1.05 0.80 0.79 0.74 0.67 0.58 0.50 0.45 0.37 0.43 0.53 0.59 0.65 0.66 0.62 0.59 0.64 0.62 0.67 0.76 0.79 0.70 0.65 0.69 0.74 0.80 0.83 1.13 1.31 1.46 1.53 1.34 1.46 1.55 1.51 1.40 1.36 1.52 1.53 1.66 1.71 1.81 1.86 1.71 1.53 1.37
1.46 1.33 1.09 0.99 0.87 0.78 0.73 0.65 0.61 0.52 0.46 0.42 0.47 0.60 0.65 0.70 0.72 0.68 0.63 0.60 0.54 0.63 0.73 0.75 0.77 0.74 0.73 0.76 0.76 0.75 0.82 0.91 1.01 0.99 0.98 1.15 1.30 1.34 1.36 1.26 1.34 1.44 1.65 1.90 2.00 1.83 1.73 1.62 1.56
1.17 1.28 1.34 1.11 0.91 0.72 0.74 0.93 0.70 0.57 0.57 0.55 0.57 0.61 0.65 0.63 0.65 0.66 0.61 0.58 0.55 0.61 0.67 0.73 0.79 0.86 0.85 0.86 0.91 0.88 0.83 0.85 0.85 0.82 0.82 0.92 1.05 1.15 1.25 1.31 1.31 1.37 1.63 1.93 2.14 2.01 1.89 1.70 1.68
1.27 1.46 1.77 1.40 1.13 0.88 1.00 1.24 0.68 0.59 0.65 0.62 0.59 0.55 0.56 0.53 0.56 0.59 0.58 0.59 0.60 0.60 0.58 0.61 0.66 0.75 0.79 0.84 0.89 0.99 0.98 0.97 0.96 0.97 0.93 0.89 1.05 1.16 1.25 1.36 1.32 1.35 1.60 1.88 2.14 2.21 2.20 2.10 2.00
1.44 1.43 1.40 1.34 1.15 0.96 0.95 0.95 0.62 0.58 0.66 0.67 0.61 0.56 0.59 0.44 0.44 0.48 0.48 0.53 0.56 0.56 0.49 0.49 0.55 0.59 0.62 0.66 0.73 0.86 0.93 0.99 1.08 1.07 1.08 1.11 1.18 1.20 1.31 1.53 1.56 1.57 1.75 1.86 1.89 2.07 2.13 2.21 2.16
1.11 1.00 1.02 1.12 0.95 0.93 0.89 0.70 0.54 0.57 0.62 0.65 0.67 0.60 0.56 0.40 0.33 0.33 0.38 0.44 0.48 0.48 0.48 0.48 0.51 0.52 0.51 0.52 0.62 0.76 0.84 0.90 1.09 1.15 1.20 1.47 1.62 1.42 1.38 1.56 1.62 1.68 1.93 1.99 2.03 2.27 2.27 2.21 2.27
0.78 0.73 0.83 0.82 0.69 0.84 0.80 0.64 0.54 0.50 0.48 0.51 0.57 0.57 0.53 0.40 0.30 0.24 0.22 0.28 0.35 0.33 0.32 0.38 0.42 0.51 0.52 0.46 0.49 0.64 0.78 0.91 1.06 1.25 1.25 1.47 1.60 1.51 1.55 1.62 1.68 1.73 1.86 1.92 2.03 2.39 2.45 2.30 2.15
0.75 0.81 0.85 0.76 0.65 0.74 0.81 0.67 0.55 0.46 0.40 0.41 0.45 0.49 0.46 0.36 0.29 0.26 0.21 0.23 0.28 0.31 0.26 0.27 0.30 0.41 0.53 0.55 0.59 0.74 0.94 1.06 1.18 1.35 1.38 1.45 1.47 1.45 1.40 1.63 1.80 1.78 1.94 2.00 2.15 2.46 2.72 2.46 2.26
0.71 0.78 0.77 0.77 0.78 0.73 0.81 0.88 0.67 0.50 0.44 0.42 0.42 0.43 0.41 0.32 0.28 0.27 0.25 0.21 0.22 0.26 0.22 0.26 0.34 0.48 0.65 0.82 1.05 1.33 1.64 1.80 1.69 1.58 1.67 1.75 1.79 1.71 1.66 1.78 1.96 1.93 2.01 2.12 2.16 2.25 2.77 2.94 2.67
0.82 0.55 0.55 0.66 0.92 0.94 0.78 1.02 0.71 0.50 0.49 0.49 0.44 0.39 0.35 0.31 0.28 0.25 0.25 0.24 0.25 0.31 0.35 0.46 0.60 0.75 0.91 1.11 1.32 1.61 1.89 2.11 2.12 2.16 2.22 2.17 2.09 1.96 1.84 1.89 1.99 2.05 2.14 2.12 1.94 2.09 2.60 3.13 3.18
0.64 0.55 0.56 0.67 0.88 0.85 0.73 0.76 0.63 0.50 0.58 0.60 0.56 0.47 0.43 0.42 0.39 0.38 0.39 0.37 0.39 0.50 0.62 0.75 1.04 1.21 1.30 1.33 1.41 1.65 1.75 1.85 1.97 2.13 2.19 2.19 2.12 2.00 1.86 1.83 1.99 2.11 2.19 2.17 2.20 2.34 2.63 2.97 3.26
0.53 0.65 0.73 0.83 0.94 0.89 0.58 0.57 0.63 0.49 0.55 0.66 0.63 0.55 0.49 0.46 0.43 0.45 0.52 0.53 0.60 0.83 1.06 1.19 1.36 1.58 1.50 1.37 1.35 1.47 1.62 1.72 1.83 2.00 2.07 2.01 1.89 1.87 1.82 1.83 1.89 1.91 2.00 2.09 2.25 2.48 2.62 2.80 3.03
0.53 0.83 1.06 1.10 1.03 0.73 0.38 0.44 0.52 0.38 0.37 0.47 0.53 0.53 0.48 0.42 0.41 0.46 0.55 0.68 0.90 1.14 1.34 1.47 1.50 1.54 1.44 1.26 1.28 1.32 1.46 1.61 1.67 1.72 1.75 1.75 1.70 1.65 1.66 1.72 1.75 1.70 1.73 1.87 2.04 2.25 2.28 2.39 2.61
0.46 0.60 0.91 1.01 0.86 0.59 0.41 0.55 0.55 0.39 0.29 0.27 0.29 0.35 0.44 0.49 0.55 0.57 0.62 0.80 1.12 1.39 1.62 1.88 1.87 1.67 1.50 1.37 1.36 1.38 1.46 1.51 1.49 1.41 1.46 1.50 1.48 1.44 1.40 1.43 1.51 1.53 1.55 1.62 1.80 1.95 1.93 1.98 2.18
0.43 0.44 0.47 0.65 0.57 0.55 0.48 0.51 0.44 0.29 0.24 0.23 0.26 0.32 0.44 0.54 0.64 0.74 0.89 0.98 1.21 1.45 1.78 2.08 2.16 1.96 1.79 1.68 1.57 1.54 1.42 1.32 1.25 1.16 1.17 1.21 1.26 1.20 1.16 1.22 1.35 1.46 1.46 1.46 1.62 1.75 1.70 1.76 1.89
0.34 0.39 0.45 0.67 0.74 0.72 0.54 0.54 0.45 0.30 0.23 0.24 0.34 0.40 0.49 0.58 0.63 0.80 1.10 1.38 1.65 1.59 1.72 1.95 1.91 1.87 1.85 1.84 1.81 1.67 1.44 1.27 1.21 1.14 1.15 1.12 1.17 1.11 1.11 1.14 1.16 1.19 1.24 1.31 1.50 1.67 1.72 1.71 1.77
0.33 0.38 0.45 0.57 0.57 0.74 0.81 0.68 0.42 0.35 0.35 0.40 0.48 0.51 0.55 0.63 0.68 0.87 1.07 1.27 1.51 1.63 1.65 1.68 1.69 1.76 1.78 1.66 1.58 1.46 1.18 0.99 0.96 0.97 0.95 0.91 0.95 0.90 0.89 0.89 0.95 1.08 1.10 1.12 1.32 1.41 1.43 1.56 1.65
0.38 0.41 0.46 0.73 0.71 0.64 0.89 0.90 0.51 0.48 0.50 0.59 0.66 0.71 0.75 0.76 0.82 0.97 1.08 1.25 1.35 1.37 1.48 1.59 1.51 1.50 1.49 1.37 1.23 1.07 0.97 0.84 0.81 0.81 0.76 0.69 0.70 0.67 0.72 0.78 0.78 0.96 1.12 1.16 1.21 1.22 1.22 1.36 1.46